Location: Diebersbach
(48.5163°N, 8.0558°E)
Time: 19:34:39
(UTC+00:00)

Cosmos 1825 - Pass Details

Date: 30 October 2021
Orbit: 501 x 504 km, 82.5° (Epoch: 01 December)

Event Time Altitude Azimuth Distance (km) Brightness Sun altitude
Rises 17:36:01 0° 353° (N) 2,611 5.8 -14.5°
Reaches altitude 10° 17:38:10 10° 357° (N) 1,722 4.8 -14.9°
Maximum altitude 17:41:55 62° 78° (ENE) 571 2.1 -15.5°
Drops below altitude 10° 17:45:37 10° 160° (SSE) 1,709 4.7 -16.1°
Sets 17:47:45 0° 164° (SSE) 2,589 5.6 -16.4°
